Theta_e
334 329 330 331 326 324 317 315 300 310 305 297 295 298 296 303 300 299 299 304 302 306 306 308 307 307 304 302 303 305 306 302 303 296 300 316 328 331 336 334 340 342 342 342 344 346 346 347 351 352 352 352 351 351 351 350 349 348 349 348 348 348 348 348 347 347 347 349 348 348 348 348 347 347 347 346 346 346 346 346 345 345 345 345 345 345 344 343 341 341 340 338 337 336 336 335 334
328 329 325 327 323 322 312 315 303 298 300 296 298 298 297 300 299 299 300 302 304 305 306 305 306 307 307 306 304 305 305 306 307 308 323 329 330 328 337 335 340 340 342 342 344 345 346 347 349 351 352 352 352 351 350 349 349 348 349 348 348 348 347 346 347 348 348 348 348 348 348 347 347 346 345 345 344 344 344 343 342 343 343 342 343 343 342 340 340 339 339 337 336 335 334 333 332
325 327 324 327 321 318 312 311 299 297 295 292 294 297 301 297 297 301 303 304 305 306 306 306 307 308 307 306 303 304 300 311 310 311 315 327 326 325 336 335 338 339 343 344 343 345 346 346 346 351 352 352 351 351 349 349 349 348 348 349 348 348 347 347 347 347 348 349 347 348 347 347 346 345 343 342 341 341 340 340 340 341 340 340 340 340 339 338 339 337 336 336 334 333 332 331 330
329 329 325 321 313 318 307 304 302 298 295 293 294 299 298 298 298 301 304 305 305 306 307 306 304 309 306 302 305 308 306 307 310 312 316 323 327 329 335 333 334 338 341 344 343 344 345 344 346 351 352 352 351 350 350 349 348 348 348 348 348 348 347 347 347 347 348 348 348 347 347 346 345 344 343 341 340 339 339 338 338 338 338 339 338 337 337 337 337 337 335 333 332 331 331 330 329
327 329 325 319 317 309 310 305 299 298 293 296 293 299 298 300 301 302 303 304 305 305 306 307 304 309 311 307 308 303 304 310 310 313 322 326 331 331 333 335 335 336 339 344 342 344 344 343 345 349 352 352 351 350 350 349 349 348 348 348 348 347 347 347 347 348 348 348 348 347 346 346 345 344 342 341 339 338 337 338 337 337 336 336 336 336 336 335 335 334 334 333 332 330 329 329 328
326 323 330 322 311 316 310 297 297 294 298 301 296 297 299 301 301 303 304 305 306 306 307 305 304 304 306 308 309 304 313 307 313 317 323 328 332 333 333 333 331 335 338 342 342 343 343 342 344 349 352 352 351 351 351 349 349 349 348 348 347 346 347 347 348 348 348 348 348 347 346 345 345 343 341 340 338 337 337 336 336 336 335 334 335 334 334 334 334 333 333 332 330 329 328 327 326
322 322 320 318 315 312 301 296 295 296 299 302 299 298 300 301 302 302 303 304 306 307 307 306 307 306 303 308 310 311 315 319 313 328 330 329 331 333 333 328 327 334 338 339 342 342 344 342 346 349 350 351 351 351 351 350 349 349 348 347 347 347 347 347 348 347 348 348 347 347 346 345 344 342 341 339 338 337 336 336 335 335 334 334 333 333 334 333 333 332 331 330 329 328 326 326 325
324 317 319 308 305 303 298 297 297 299 300 302 303 301 302 303 304 304 302 303 304 303 304 308 306 305 303 309 304 316 314 322 327 327 328 328 332 333 332 325 325 329 337 337 340 341 340 341 345 348 350 351 350 350 351 349 349 349 349 347 347 347 347 347 348 347 348 348 347 346 346 345 343 342 340 339 338 337 336 336 335 335 333 332 332 332 332 332 332 332 330 328 327 326 325 325 324
321 315 319 308 301 306 299 298 299 302 301 302 301 306 309 306 307 304 302 305 304 306 306 306 305 303 304 306 304 313 314 320 319 321 324 328 331 333 331 326 325 328 336 335 339 343 340 340 343 347 348 350 350 351 350 349 349 349 349 348 347 347 347 347 347 348 347 348 347 346 345 344 343 341 340 338 337 337 335 335 334 332 332 332 331 332 332 331 331 330 329 327 326 326 324 324 324
316 312 306 307 306 296 296 297 298 298 299 301 300 302 303 304 303 305 303 302 304 305 305 306 306 302 305 302 304 311 314 317 317 318 321 323 330 331 329 330 330 331 335 335 341 343 340 337 341 344 346 349 349 350 350 350 349 349 348 348 347 347 347 347 348 347 347 347 347 346 345 344 342 341 340 337 336 335 334 334 333 332 332 331 331 331 331 330 330 330 328 327 326 324 323 323 323
309 314 314 302 299 296 297 294 296 298 299 300 301 305 305 304 304 303 304 303 305 304 305 306 304 303 304 304 304 319 317 316 315 316 319 320 328 328 326 331 331 332 334 336 339 343 340 339 337 341 343 345 347 349 349 348 349 349 349 348 348 348 348 348 348 348 347 347 346 345 344 343 342 340 339 337 335 335 334 333 333 332 332 331 331 331 330 329 330 330 328 327 325 324 323 322 321
308 308 310 300 296 296 296 294 296 298 300 300 301 304 303 305 305 302 303 302 304 304 304 304 306 306 302 302 306 313 313 313 318 317 318 322 323 327 328 329 334 334 336 337 338 341 341 340 338 337 339 341 342 345 346 347 348 348 348 348 348 348 348 348 348 347 347 347 347 346 345 344 341 340 339 337 335 334 333 332 332 332 331 331 331 330 330 330 330 329 327 325 324 323 322 321 320
309 308 302 298 296 296 298 296 296 297 298 298 301 304 304 305 302 303 302 302 302 301 303 309 308 307 300 303 309 311 311 316 318 318 318 317 321 325 330 329 332 334 336 336 336 337 340 340 340 339 337 335 336 339 341 343 344 346 346 347 347 347 347 347 347 347 347 346 346 345 343 342 341 341 338 337 333 332 331 331 330 331 330 331 330 329 330 329 329 328 325 324 323 322 321 320 319
312 311 305 297 299 297 295 297 297 296 295 300 301 303 305 302 304 305 301 299 301 303 306 308 307 305 301 303 304 307 311 315 316 319 316 320 323 326 328 328 330 331 333 336 334 335 337 340 340 340 339 338 340 336 335 338 341 343 344 344 344 344 345 346 346 345 345 344 343 340 340 338 338 340 339 336 332 332 332 330 330 330 330 330 329 329 330 329 328 326 324 324 323 321 321 319 318
309 312 305 301 296 296 298 295 298 296 295 300 302 303 303 305 304 304 302 300 302 306 309 308 308 303 296 301 304 309 310 313 314 317 320 324 325 325 326 329 330 329 330 333 333 332 334 335 339 340 339 340 341 341 340 338 335 338 341 341 341 342 343 342 342 342 340 339 339 336 334 333 333 334 333 332 332 331 330 328 331 329 330 330 330 330 329 328 327 325 324 324 322 321 320 318 316
314 310 305 300 294 295 296 298 301 297 296 300 302 303 302 304 305 303 305 306 305 308 307 302 307 303 303 303 304 313 313 314 316 319 317 321 322 325 326 327 327 327 327 330 331 331 332 333 333 337 340 340 341 341 341 340 333 333 337 339 339 340 339 339 338 338 334 331 331 329 326 328 326 326 324 326 328 329 327 324 328 328 329 329 329 329 328 327 326 325 324 323 321 320 318 316 313
314 311 298 297 294 296 298 297 302 294 297 300 302 302 301 301 305 306 305 307 302 303 303 305 305 307 304 306 309 312 313 315 317 317 318 317 318 318 320 321 322 326 329 328 328 329 330 331 333 335 337 340 340 341 341 341 338 331 333 332 333 334 335 334 334 331 326 324 323 321 320 325 324 322 322 323 321 323 320 322 326 330 328 328 328 327 327 326 326 325 323 323 320 319 315 313 312
312 302 298 294 295 295 299 296 298 299 296 297 300 301 300 298 303 305 304 303 302 303 302 305 306 306 308 308 309 313 314 315 316 317 315 315 316 314 316 318 320 320 324 326 328 328 329 330 332 332 335 337 339 340 341 341 340 333 338 337 335 333 330 328 330 331 325 326 321 321 324 324 324 323 322 322 322 321 321 320 322 327 329 330 329 327 326 325 325 325 324 322 320 316 312 304 304
305 300 298 294 297 299 302 301 301 299 299 301 300 301 301 300 301 304 300 299 300 300 301 303 303 304 307 308 309 311 312 313 315 314 313 314 315 314 316 317 319 319 322 324 326 328 328 329 331 332 331 336 337 339 340 339 339 337 338 338 336 332 331 330 332 329 327 326 323 323 323 324 324 323 322 322 322 320 321 319 321 325 328 328 327 327 325 325 325 325 324 321 318 314 307 302 300
304 300 294 296 300 301 302 302 302 303 302 301 300 301 300 301 301 304 300 299 300 299 299 300 300 301 304 305 307 310 310 310 314 311 310 312 314 314 313 317 318 319 322 324 325 327 327 328 330 332 331 333 335 336 337 337 338 337 338 338 337 335 334 331 332 330 328 327 325 324 323 323 324 324 322 319 321 320 319 318 319 321 323 323 322 323 325 325 324 324 323 320 315 308 303 301 299
304 300 296 298 300 298 300 302 302 303 302 301 300 300 299 300 301 303 300 298 299 300 302 301 301 302 302 304 305 307 308 308 309 311 310 309 311 313 312 313 317 320 321 325 325 327 327 328 329 331 332 331 332 333 333 334 334 337 337 337 337 336 334 332 331 330 328 328 327 326 324 323 324 323 320 319 319 319 317 317 317 318 316 315 318 315 315 316 317 313 312 310 304 302 301 301 299
306 299 301 302 301 298 302 302 303 302 303 302 300 299 299 302 302 301 300 297 296 299 303 304 304 304 304 304 304 305 304 307 307 308 309 309 309 309 311 310 312 318 321 323 324 326 327 328 329 331 331 331 331 332 332 332 332 334 336 336 335 334 333 332 330 330 329 329 329 327 326 325 323 322 320 319 319 318 317 316 316 317 315 315 315 314 313 313 310 308 307 304 301 299 299 300 300
298 301 302 302 302 300 302 302 303 301 302 300 300 301 302 300 299 301 301 300 302 305 306 306 306 307 307 307 305 305 304 304 307 307 308 309 309 309 309 310 310 310 318 320 324 326 327 328 329 329 330 330 331 331 331 331 331 331 333 334 334 332 332 331 330 330 330 330 330 327 326 323 321 320 319 318 318 318 316 316 316 316 316 314 314 311 312 312 309 306 303 301 298 298 299 299 299
300 298 301 302 303 300 302 301 301 302 302 301 302 303 300 300 296 301 300 302 304 305 306 306 307 307 307 306 306 305 304 304 305 307 307 307 308 310 310 309 308 310 314 320 321 324 325 327 328 329 329 330 330 331 330 331 331 331 330 329 330 329 329 330 329 329 329 328 328 327 324 323 321 319 319 317 318 317 315 316 315 315 314 314 313 312 311 309 308 304 300 297 298 299 299 299 299
298 298 302 303 302 302 302 300 300 301 302 302 301 300 300 301 300 301 300 302 304 305 306 305 305 305 306 305 304 304 304 304 304 306 308 306 308 310 312 311 310 310 311 317 320 321 325 327 328 328 329 329 330 331 330 330 330 331 330 329 328 325 328 329 328 328 327 326 326 325 323 322 320 319 318 317 317 316 313 315 314 314 314 313 312 310 311 309 307 300 298 298 298 298 298 297 297
300 299 300 300 300 302 302 301 301 301 301 301 300 299 301 301 302 299 301 303 304 305 305 305 305 304 304 304 304 303 303 304 304 305 305 306 309 309 310 311 311 310 311 313 319 320 322 327 327 328 328 329 330 330 329 329 329 329 329 329 328 325 327 327 327 326 327 324 323 325 323 322 320 318 317 316 317 314 312 313 313 313 313 312 311 310 308 306 303 297 298 299 298 297 297 297 296
301 299 300 299 300 299 301 299 300 301 300 300 299 299 300 301 300 295 301 303 303 302 302 303 303 302 302 302 303 303 303 303 304 305 305 308 308 309 309 311 310 311 311 310 315 319 319 324 326 327 328 327 329 329 329 329 328 328 328 328 328 326 327 326 325 324 324 324 322 324 323 322 320 318 317 315 315 313 311 313 313 313 312 311 310 308 306 303 299 297 299 297 297 297 296 296 295
300 299 298 299 299 300 300 300 300 300 299 300 299 298 299 300 300 297 300 303 303 302 302 302 302 302 302 302 303 303 303 304 303 305 305 304 305 307 309 310 310 310 310 311 311 316 319 320 324 326 327 327 327 328 327 327 327 327 327 327 327 327 326 326 326 324 320 322 322 322 323 322 319 319 317 315 314 312 311 312 312 312 310 308 308 305 302 301 299 298 298 297 297 296 296 294 296
299 297 294 296 298 297 299 298 300 300 299 300 300 296 295 296 295 300 302 303 302 302 302 302 302 302 302 302 302 302 302 302 302 304 305 304 304 308 309 311 311 310 311 312 312 313 317 318 321 323 325 326 326 327 327 327 327 327 326 326 326 327 326 325 325 325 323 322 322 322 322 322 320 320 317 315 312 312 311 311 310 310 309 306 305 302 300 299 298 297 298 298 296 296 295 294 297
299 298 295 294 295 294 299 301 301 299 299 300 298 286 290 295 299 301 303 302 302 301 299 299 301 302 302 303 303 302 302 302 301 303 304 305 305 306 306 307 310 310 311 311 311 312 314 319 319 322 322 323 324 326 326 325 326 326 326 325 324 326 326 324 323 324 323 322 321 321 322 322 321 320 316 313 312 311 310 310 309 307 306 304 302 301 299 297 297 297 297 296 298 295 294 294 293
294 297 296 291 290 290 299 300 297 297 298 299 298 288 290 296 299 302 304 301 301 298 298 300 302 302 302 302 302 302 303 302 303 303 306 306 306 307 306 306 308 310 310 311 312 312 312 316 319 319 318 319 320 322 321 323 323 324 323 323 323 323 324 323 322 323 322 322 321 320 321 321 320 320 316 313 311 310 309 308 308 306 305 303 301 299 298 297 297 297 296 295 294 293 293 294 293
295 291 288 292 289 291 298 302 297 295 295 298 295 288 290 295 298 301 302 302 302 300 301 301 302 302 302 302 301 301 301 302 303 304 306 306 306 305 307 309 307 307 307 311 312 313 311 313 315 314 316 317 318 320 319 319 320 320 320 319 320 319 320 320 320 321 321 320 320 319 319 320 320 319 316 312 311 309 308 307 307 305 304 301 300 299 298 296 295 296 295 294 293 292 294 292 293
294 291 290 290 291 293 295 300 298 299 295 296 295 290 293 294 298 301 302 301 301 299 300 301 301 302 302 301 301 299 301 301 305 304 306 306 306 306 305 306 306 309 308 307 310 311 311 312 314 314 315 316 317 319 318 317 318 319 319 318 319 318 318 318 318 317 320 319 319 317 316 318 318 318 316 312 311 308 307 306 305 305 303 301 299 298 297 296 295 296 293 293 292 291 292 291 290
290 293 290 293 292 293 291 298 300 297 296 292 294 292 292 295 296 299 300 300 299 299 299 300 301 301 301 300 300 299 301 302 303 305 307 307 307 307 307 307 307 306 305 305 308 308 309 309 313 313 314 315 315 317 318 317 317 317 317 317 316 317 317 317 317 316 318 316 315 314 314 316 316 316 315 312 309 309 307 305 303 303 302 300 298 298 296 295 294 294 292 292 292 292 292 291 291
290 291 291 292 294 294 293 293 297 296 295 294 292 292 292 294 296 298 300 301 300 300 300 300 300 300 301 300 300 300 302 303 305 306 306 306 306 306 306 306 306 305 305 303 305 306 306 308 311 311 312 313 313 315 316 316 316 316 316 315 316 316 316 316 316 315 314 314 314 313 312 315 313 314 314 311 308 306 305 303 302 302 301 299 298 296 295 294 294 293 292 292 293 292 292 291 292
293 294 292 292 291 292 292 296 300 299 296 295 295 294 295 296 297 299 300 301 300 300 300 300 300 300 301 300 301 301 303 305 306 306 306 307 307 307 307 306 305 305 305 304 304 305 305 307 307 309 310 311 311 312 315 313 314 313 313 313 313 313 313 313 314 313 313 313 312 312 311 312 311 311 312 310 307 305 303 302 300 300 300 298 297 295 294 293 294 293 292 292 292 292 293 292 292
296 295 293 292 292 293 296 297 299 299 296 294 295 295 294 295 296 298 300 300 299 298 298 299 299 300 299 299 301 303 304 304 305 305 305 304 304 305 305 304 304 304 304 304 304 304 304 305 306 306 308 308 308 308 310 310 310 310 311 311 310 310 311 312 311 312 312 311 311 312 311 310 309 310 309 308 307 305 303 300 299 298 298 298 296 296 295 294 294 294 293 292 292 291 291 292 292
295 293 292 292 292 291 295 296 298 299 295 292 294 294 294 295 297 298 299 298 297 297 298 298 299 299 300 301 301 302 303 304 303 302 303 302 302 303 303 302 302 301 301 302 302 303 303 304 304 304 306 306 306 307 308 310 310 309 308 308 310 310 310 310 310 310 311 312 310 309 308 308 307 308 308 307 306 305 303 300 298 297 296 296 296 295 294 294 294 293 292 290 292 292 290 292 293
295 292 291 290 291 294 296 297 298 297 295 290 292 291 292 295 297 298 298 298 299 299 299 299 299 299 301 302 301 301 301 300 301 301 301 301 301 301 301 301 301 301 300 301 301 302 302 302 303 303 304 305 305 305 306 307 309 310 310 310 309 309 310 309 309 309 309 309 308 309 309 308 308 307 308 307 307 306 304 301 300 297 297 296 294 294 294 293 294 293 292 292 290 290 290 292 292
292 291 288 288 292 290 288 294 296 296 293 291 293 292 293 296 297 298 299 299 299 300 301 301 302 302 302 301 301 300 299 299 299 299 300 300 299 299 299 300 300 300 300 300 300 300 302 301 302 302 303 304 304 303 303 304 306 307 307 307 307 308 306 306 306 307 308 308 308 307 306 306 307 306 305 306 306 305 304 303 300 298 297 296 295 294 293 293 293 293 292 292 291 290 290 291 292
294 294 291 291 291 292 292 292 295 296 296 296 292 291 290 293 293 295 298 299 299 300 300 300 302 304 302 301 301 300 298 298 298 298 298 298 297 297 297 297 298 298 298 299 299 300 300 300 300 301 302 303 303 304 303 303 303 303 305 306 303 303 303 303 302 303 305 304 304 305 306 305 305 305 304 304 304 304 303 303 301 298 297 296 295 294 294 294 293 293 293 292 291 291 289 289 291
291 294 294 294 294 293 294 294 292 289 288 293 291 282 284 291 293 294 296 295 295 297 298 299 300 300 299 299 299 299 299 298 297 297 297 297 297 296 296 296 296 297 297 298 299 299 299 299 299 300 301 302 302 302 303 302 302 301 301 301 300 300 299 299 299 299 301 302 303 303 303 305 305 304 303 303 303 302 302 302 301 299 296 296 295 295 294 293 293 293 293 293 291 291 290 289 289
288 290 296 298 295 294 293 292 290 283 281 291 293 281 280 289 291 294 296 294 295 297 297 296 297 298 298 298 298 297 297 296 296 296 296 296 296 296 295 295 296 296 297 298 298 298 298 298 298 298 298 299 300 300 301 301 300 300 300 299 300 299 298 299 301 302 301 302 304 302 303 302 303 304 302 302 301 301 301 301 300 300 298 296 295 294 294 293 294 293 293 293 292 292 289 288 289
287 295 296 296 294 292 292 292 290 287 290 292 292 289 282 282 288 295 296 295 296 294 295 295 296 297 297 296 296 295 295 296 295 295 295 295 295 295 294 295 295 296 297 297 297 297 297 297 297 297 297 297 298 299 300 301 300 299 299 299 298 298 298 299 300 301 300 301 301 302 301 301 301 302 302 301 301 300 300 300 300 300 299 296 294 294 294 293 293 294 293 293 293 292 291 290 289
291 295 295 293 293 292 291 289 287 286 284 282 287 290 282 281 289 294 294 292 292 292 293 294 295 296 295 295 295 294 294 294 294 294 293 293 293 294 294 294 295 295 296 296 296 297 297 297 296 296 297 297 297 297 298 299 299 299 298 298 297 299 299 299 299 300 299 298 299 299 299 299 299 300 300 300 300 300 299 299 299 299 299 298 295 294 293 293 293 293 293 293 292 292 291 291 290
296 295 295 295 294 293 291 285 285 284 282 279 285 289 281 282 290 290 292 291 291 291 292 293 294 294 294 293 293 293 293 293 293 293 293 293 293 293 294 294 293 294 295 296 296 296 296 296 296 295 295 296 297 297 297 297 298 298 298 297 297 297 298 299 299 298 298 298 297 297 297 298 297 297 298 297 297 299 298 297 297 297 298 298 296 295 293 293 293 292 293 293 293 292 292 291 291
296 296 294 292 291 289 288 287 285 282 278 281 287 290 287 278 287 287 290 292 292 292 292 293 293 293 292 292 292 292 292 291 292 292 292 292 292 292 293 292 292 292 293 294 294 295 295 295 295 295 295 295 296 296 296 296 296 296 296 296 296 296 296 297 296 297 297 297 297 296 296 296 296 296 296 297 297 297 297 296 296 297 297 297 296 295 294 293 293 293 292 292 292 292 292 291 291
294 289 287 287 286 286 285 284 283 277 277 283 287 289 289 278 284 291 292 293 293 293 291 291 290 290 291 290 291 291 291 291 290 290 290 290 291 291 291 290 291 291 292 292 292 293 294 294 294 294 294 294 295 295 295 295 295 295 295 295 294 295 295 296 295 295 296 295 296 296 296 295 294 295 294 294 295 296 296 296 295 295 295 295 295 295 295 295 294 293 292 292 292 292 292 291 291
290 288 287 282 280 282 278 280 275 277 277 283 285 288 284 284 287 292 292 292 293 294 293 291 290 290 290 290 290 290 291 290 290 289 289 289 289 289 289 289 290 290 290 290 291 291 292 293 293 293 293 294 294 294 294 294 294 294 295 294 294 294 294 294 294 294 294 294 294 295 295 294 294 294 293 293 293 294 295 295 295 294 294 294 295 295 295 294 294 293 292 292 292 291 292 291 291
288 285 283 281 277 276 273 277 279 279 283 282 284 287 280 287 290 292 291 292 292 292 291 291 290 290 289 289 289 290 289 289 289 288 288 288 288 289 289 289 289 290 290 290 290 291 291 291 291 291 292 293 293 294 294 293 293 294 294 294 294 294 293 293 293 293 293 294 294 293 294 294 294 294 294 293 294 293 294 295 295 294 294 294 294 294 294 293 293 293 292 292 291 292 291 291 291
288 290 289 283 282 278 273 277 274 276 278 282 285 281 279 280 285 289 291 291 291 291 291 290 290 290 289 289 289 289 288 288 288 287 287 287 288 288 288 288 288 288 289 290 290 290 291 290 290 290 291 292 292 293 293 293 293 293 293 293 293 293 293 293 293 294 293 293 293 293 293 294 293 294 294 294 294 293 293 293 293 293 293 294 293 293 294 293 292 292 292 292 291 290 290 290 290
290 291 290 284 282 286 281 283 282 281 280 280 281 280 283 287 290 291 291 291 290 290 290 290 289 289 288 288 288 287 288 288 288 287 287 287 287 287 287 287 288 288 288 288 288 290 290 290 290 290 290 290 291 291 292 292 292 292 292 292 292 292 292 292 292 293 293 293 293 293 293 293 294 293 294 294 294 294 293 292 292 292 292 292 292 292 292 292 291 291 290 289 289 291 289 288 289
286 286 283 285 290 289 284 284 284 283 282 280 285 284 288 291 294 290 290 289 289 289 289 288 288 288 288 287 287 287 287 287 287 287 286 286 286 286 287 286 287 288 288 288 288 288 288 288 289 288 288 289 289 290 291 291 291 291 291 291 291 290 291 290 291 291 291 292 292 293 293 293 293 293 294 294 294 293 294 292 292 292 291 292 291 291 290 290 289 289 289 288 288 288 287 288 288
286 281 286 291 293 290 284 278 281 280 277 279 284 281 282 283 278 287 287 286 287 287 287 288 288 287 287 287 287 287 287 287 287 287 287 288 288 287 288 288 288 287 288 289 289 289 289 289 288 288 288 289 290 290 290 290 290 290 290 290 290 290 289 289 289 289 290 290 290 291 291 291 291 292 293 293 292 292 292 292 290 289 290 289 289 289 289 289 288 288 288 288 288 287 287 287 286
290 287 293 284 281 279 284 281 275 276 276 278 281 283 283 284 285 287 285 285 286 287 287 287 287 287 287 287 287 288 288 288 288 287 287 287 287 288 288 288 289 289 289 289 289 290 289 289 289 289 289 289 289 290 289 290 289 289 289 288 289 288 288 288 288 288 288 288 288 288 289 289 290 290 290 290 290 289 289 290 289 289 289 289 289 289 288 289 288 288 288 288 287 287 287 287 287
292 292 285 290 283 282 281 281 279 280 276 277 277 282 279 287 286 290 287 287 287 287 287 287 288 289 289 289 289 289 289 289 289 289 289 288 288 288 288 288 288 288 289 289 289 289 288 288 288 288 288 288 288 288 288 288 289 288 288 288 288 288 288 288 287 287 286 286 287 287 287 287 288 288 288 288 287 287 288 288 288 288 288 288 288 288 288 288 288 288 288 287 287 286 287 287 287
284 284 283 285 283 284 284 282 279 279 278 278 278 277 282 287 291 289 288 288 288 289 289 288 288 290 289 289 288 288 288 287 287 287 287 287 287 286 286 286 287 287 287 287 288 287 287 287 286 287 286 286 286 287 287 286 287 286 286 286 286 287 287 287 287 287 286 285 285 286 286 286 286 286 287 286 287 287 287 287 287 287 287 287 287 287 288 287 287 287 287 287 287 286 286 287 286
289 287 284 286 283 281 279 278 285 281 280 277 278 276 284 290 292 290 289 289 289 289 289 287 287 287 288 288 287 287 286 286 286 286 286 285 285 285 285 285 285 286 285 284 286 286 286 286 285 285 285 285 285 286 287 287 286 286 285 285 285 284 285 285 285 285 285 284 284 284 284 284 284 285 285 285 285 286 286 286 286 286 286 286 286 286 286 286 286 286 286 287 287 286 286 286 286
Wind_Speed
8 7 6 5 4 4 4 2 2 1 1 4 4 1 2 1 0 1 2 3 3 1 3 1 1 2 2 2 3 4 3 3 3 3 1 1 1 4 4 3 1 8 8 8 9 10 11 13 14 15 15 15 15 15 15 15 14 13 13 13 12 12 11 11 10 10 10 10 9 9 9 9 9 10 10 10 10 11 10 9 9 7 8 8 7 7 6 5 4 6 6 7 7 7 8 8 7
7 6 4 3 4 2 1 0 1 3 4 5 2 5 0 0 1 1 5 6 3 1 1 0 1 1 3 5 3 4 6 7 5 1 2 3 3 2 3 4 2 8 7 9 10 9 10 11 15 14 15 16 16 15 15 15 14 14 14 13 13 12 12 11 10 10 10 10 10 9 10 10 10 10 10 9 8 8 8 7 6 6 6 5 5 5 5 4 4 5 6 6 7 7 7 7 7
6 7 5 4 3 2 3 2 2 3 4 3 5 2 0 4 4 5 6 4 3 2 1 1 1 1 2 3 3 4 1 1 2 3 3 5 6 3 4 3 3 6 7 9 10 9 8 10 14 15 17 15 17 16 15 15 14 14 14 13 13 13 12 11 10 10 10 10 9 10 10 10 10 10 9 8 6 6 6 5 5 5 4 4 4 4 3 3 4 5 6 6 7 6 7 6 6
5 5 3 3 2 2 2 1 2 3 3 5 2 2 4 0 2 4 4 5 2 0 1 2 2 1 1 2 2 4 4 1 3 2 3 3 1 6 5 4 5 6 5 8 10 9 8 11 14 16 16 16 16 16 15 15 15 15 14 14 14 13 12 11 11 10 10 9 10 11 11 11 10 9 10 8 6 6 6 3 4 3 3 3 2 2 2 2 4 6 6 6 7 6 6 6 6
3 4 4 2 2 2 1 2 2 2 3 2 3 1 5 5 4 4 3 1 2 1 0 1 1 1 0 3 2 1 2 5 4 4 3 1 1 5 5 4 3 5 5 9 10 9 8 15 14 15 16 19 17 17 14 15 15 15 14 13 13 13 12 12 11 11 11 10 10 12 12 12 11 10 10 9 6 5 4 4 2 2 2 2 2 2 2 2 4 5 6 6 7 6 6 6 6
5 4 3 1 1 1 0 2 3 5 6 3 3 4 4 5 3 4 3 4 3 2 1 1 2 3 1 1 2 2 2 1 2 2 1 2 2 5 5 4 4 4 5 6 9 8 8 17 14 14 17 18 17 16 15 15 15 14 13 13 14 13 12 12 11 11 11 10 12 12 12 12 11 10 9 9 7 5 5 3 3 2 1 1 1 1 2 2 4 5 6 6 6 6 6 6 5
2 3 1 1 3 1 2 3 5 4 1 1 2 3 5 4 4 4 3 2 4 1 1 1 3 2 3 1 1 2 3 2 0 0 2 4 3 5 5 4 3 4 6 5 7 8 11 18 16 15 15 16 18 16 15 15 16 15 14 14 13 13 12 12 11 11 11 11 12 13 13 12 11 11 10 9 9 5 4 4 3 3 3 2 2 1 2 3 4 5 5 6 6 6 6 6 5
2 0 0 1 2 1 3 3 6 3 1 2 1 1 3 4 3 3 3 2 1 0 2 1 3 0 7 3 2 1 4 3 6 5 6 5 4 6 5 4 4 3 5 4 5 6 15 18 17 15 14 16 16 16 15 16 16 15 14 15 14 13 13 12 12 11 11 11 13 13 13 12 10 9 10 10 10 8 5 5 4 5 3 2 3 2 3 4 4 5 6 6 6 6 6 5 5
2 2 0 1 2 3 3 4 5 2 2 1 2 1 3 0 0 1 3 1 4 1 5 4 2 1 1 0 3 2 2 4 6 6 7 6 5 5 4 5 5 4 5 4 3 6 11 17 17 16 14 15 15 15 16 17 16 16 15 15 15 14 13 12 12 10 11 12 13 13 13 12 11 10 10 9 9 7 6 5 5 1 3 4 3 3 4 4 5 5 6 6 7 6 6 6 5
2 1 1 1 2 4 4 4 3 2 3 3 0 2 4 4 4 1 2 3 2 2 4 4 2 4 4 5 4 3 2 4 6 4 4 5 5 4 4 4 4 5 5 5 5 6 6 14 18 16 14 14 14 16 16 16 15 16 16 15 15 14 13 13 12 11 12 13 14 13 13 11 11 12 11 9 8 7 6 5 4 5 5 5 4 4 4 4 5 6 6 7 7 6 6 6 6
2 2 1 1 2 4 3 5 6 5 5 3 2 9 5 2 1 3 3 2 3 1 3 5 1 5 4 3 4 1 3 4 5 6 4 4 4 4 4 3 3 4 6 5 6 7 7 8 15 16 13 13 12 14 15 15 15 15 15 14 14 13 12 12 11 12 13 14 14 14 13 12 11 10 10 10 9 8 7 6 6 5 5 5 5 4 4 5 5 6 6 7 7 7 6 6 6
2 1 2 2 4 3 4 4 5 5 6 5 4 5 2 2 1 3 2 2 3 2 3 7 0 2 3 3 2 1 4 2 5 5 4 5 3 3 3 3 1 2 5 5 5 8 8 8 7 11 14 11 11 12 14 15 15 15 15 14 14 13 12 12 11 12 12 13 13 12 12 11 11 13 11 10 10 9 7 6 6 6 6 6 5 5 4 5 6 6 7 7 7 6 6 6 6
2 3 3 3 3 4 5 5 3 5 6 3 4 2 1 0 2 3 4 5 4 5 3 2 2 0 2 3 1 4 4 4 5 4 4 4 4 3 1 5 3 3 3 5 4 7 9 8 8 7 8 11 9 10 12 13 14 14 14 14 13 13 12 12 11 12 13 12 11 10 11 9 9 12 12 11 11 9 8 7 5 6 6 6 6 5 6 5 6 6 6 6 6 6 6 6 6
2 2 3 3 4 5 5 2 5 3 4 3 4 3 1 0 1 1 3 4 5 2 1 3 1 3 4 3 5 5 1 2 3 3 2 2 5 4 3 4 4 3 3 5 4 4 7 9 8 7 8 7 6 7 10 12 13 13 14 14 13 13 12 12 12 12 12 10 9 8 8 8 10 9 10 10 12 10 8 7 6 7 7 6 6 6 6 6 6 6 7 6 6 6 6 6 6
1 3 1 2 4 4 5 4 2 3 5 3 2 3 1 2 1 1 2 4 3 4 1 3 2 2 2 1 1 2 5 4 4 4 3 2 4 4 4 3 4 3 3 4 4 4 4 6 9 8 8 8 7 6 6 9 12 12 13 13 12 12 12 13 12 11 10 9 8 8 7 8 10 10 9 11 10 9 7 5 5 7 7 7 7 7 7 7 7 7 7 7 6 6 6 6 6
1 3 1 2 3 4 5 3 2 1 3 3 2 3 0 3 3 0 1 0 2 4 2 2 3 3 4 5 4 3 5 5 4 4 3 4 1 3 3 3 4 4 4 5 4 4 4 5 4 8 9 9 8 6 6 7 9 12 11 11 12 12 12 12 11 11 10 9 8 8 8 7 8 6 10 9 11 11 9 6 5 6 7 8 8 8 7 7 7 7 7 7 7 6 6 6 5
1 0 1 3 5 5 2 3 0 2 3 3 4 3 1 2 2 1 3 0 3 6 4 4 5 4 8 8 2 7 6 5 6 5 5 4 3 3 3 3 4 4 4 5 5 6 5 5 5 6 8 10 10 8 7 8 8 11 10 11 11 11 11 11 10 10 9 8 8 8 9 7 5 4 6 5 9 7 9 8 7 6 8 7 8 8 8 8 8 8 8 8 7 7 7 7 5
1 1 2 4 6 6 3 4 4 4 4 4 4 3 7 6 1 0 1 3 5 9 8 7 8 9 8 8 6 7 8 8 6 7 5 5 5 5 5 5 5 7 7 6 6 6 7 6 7 5 8 10 9 8 7 7 7 10 8 8 8 8 8 8 7 5 6 4 8 7 6 6 6 5 5 7 5 6 8 10 7 7 6 6 6 8 9 9 9 9 8 9 9 9 8 3 3
3 2 3 5 3 4 7 5 6 4 5 7 5 4 4 4 4 1 4 5 5 8 8 6 8 7 9 12 6 9 9 8 8 7 6 6 7 7 7 7 7 5 6 7 7 9 7 7 7 8 7 10 10 9 7 7 9 8 8 8 8 9 7 7 6 5 5 5 5 5 6 6 5 6 6 6 6 9 8 10 9 8 6 6 7 7 9 10 9 9 9 9 10 9 4 4 2
4 3 4 6 4 6 6 4 6 3 4 5 5 4 5 5 5 3 5 6 5 10 10 6 5 6 7 4 6 7 8 8 8 7 7 7 7 8 6 7 7 8 8 9 9 8 8 7 9 9 7 8 10 8 7 7 7 9 8 8 7 7 7 7 6 6 6 5 6 6 5 4 5 6 8 12 9 7 7 9 10 8 6 7 9 5 7 8 10 9 9 10 7 4 3 4 4
3 4 4 4 4 6 5 9 8 7 5 4 4 5 9 5 4 1 4 6 6 10 9 11 10 6 7 9 7 2 9 7 7 7 7 7 7 7 7 7 8 9 8 7 6 8 10 10 9 10 8 7 9 8 8 7 7 9 8 8 8 8 7 7 7 6 6 6 8 6 6 4 5 5 5 6 6 6 5 5 5 5 4 4 8 4 4 4 4 4 4 5 4 3 3 3 5
2 5 4 5 5 7 8 8 10 5 4 1 4 6 8 5 5 2 4 8 10 7 9 9 10 10 9 9 7 6 4 7 7 7 9 9 8 8 6 5 4 6 7 7 8 8 10 10 10 9 9 8 8 8 8 8 7 8 9 9 8 8 8 8 7 7 7 8 7 8 7 6 6 6 6 6 6 6 6 6 6 6 5 5 5 6 5 4 4 4 4 4 4 4 4 4 6
7 5 8 8 7 8 5 5 1 2 3 4 5 6 7 6 7 6 8 10 10 10 13 13 12 11 11 8 7 8 7 6 8 8 8 8 8 7 7 6 6 5 6 7 8 7 10 10 10 9 9 9 10 9 7 7 8 7 8 9 9 8 8 9 9 9 8 8 8 8 8 7 6 7 7 7 7 7 7 7 7 6 6 6 6 6 5 6 5 6 5 4 4 4 5 3 2
6 7 3 9 10 14 12 10 8 1 2 5 6 6 8 9 12 5 8 8 11 12 11 11 11 11 8 9 9 10 8 7 8 9 8 8 8 9 7 6 5 5 6 7 7 8 10 12 12 11 11 11 9 10 9 9 8 8 8 9 9 9 9 9 8 9 8 8 9 8 8 7 7 7 7 7 7 6 6 7 7 7 6 7 7 6 7 6 6 6 5 5 5 4 4 2 2
7 7 5 9 7 6 6 5 5 5 6 7 5 7 12 9 10 8 13 11 13 15 14 12 12 11 8 9 9 8 8 8 7 7 6 6 6 6 6 7 6 5 6 8 8 8 10 11 12 12 11 12 11 11 11 9 9 9 8 8 9 9 8 8 8 9 9 8 8 8 8 8 7 7 7 7 7 7 6 7 7 7 7 7 8 7 6 7 7 7 7 6 4 4 4 3 3
4 6 5 6 6 7 7 10 11 11 8 4 3 11 12 10 10 14 16 15 15 14 14 13 10 9 9 8 8 7 8 9 7 6 7 6 6 6 6 7 7 7 9 8 8 8 7 10 12 13 12 12 11 11 10 10 10 10 10 10 8 8 8 7 7 8 8 8 8 9 9 8 7 7 7 7 8 7 7 7 8 8 8 7 8 8 7 7 7 6 6 5 5 5 5 4 4
5 5 6 9 9 9 8 11 14 11 9 6 7 10 12 6 3 10 5 9 7 6 6 5 6 6 6 6 7 8 9 9 8 7 5 4 5 8 8 7 8 10 9 8 8 8 7 8 10 11 11 10 9 10 10 10 9 10 10 10 9 8 8 8 7 8 8 8 8 9 8 9 7 7 7 7 7 7 7 7 7 7 7 8 8 8 7 7 7 7 7 7 7 7 7 6 6
4 6 8 10 10 11 13 13 16 10 8 11 10 11 10 7 3 14 16 14 11 9 8 6 5 7 7 7 9 7 7 7 6 5 6 5 6 7 7 8 9 8 7 8 7 6 8 8 10 11 11 10 10 10 9 10 10 9 9 9 9 8 7 8 8 7 7 8 8 8 8 9 7 7 8 8 8 8 8 8 7 8 8 7 8 7 7 7 7 6 6 6 6 6 7 7 6
3 4 8 12 11 13 13 13 14 8 8 6 5 3 7 7 6 16 15 14 12 9 9 8 6 7 8 8 9 7 7 6 5 4 5 5 6 6 9 10 9 8 7 7 6 5 7 7 8 10 10 9 10 10 9 9 8 8 8 9 8 8 8 7 8 8 6 6 7 8 8 9 7 8 8 9 8 8 8 8 7 7 7 7 7 7 7 7 7 7 7 6 7 6 6 6 5
4 4 6 12 9 8 10 11 11 12 1 10 8 2 4 8 7 7 7 0 1 2 5 5 6 7 7 8 9 8 6 5 5 5 4 4 5 6 7 6 7 7 6 5 5 5 5 4 5 5 7 8 10 8 7 7 7 7 6 6 7 8 8 7 8 8 7 6 6 7 8 9 8 7 7 7 8 8 8 8 8 7 7 7 7 7 8 7 7 7 7 7 7 7 7 6 6
6 5 4 6 7 5 7 5 4 2 1 8 5 4 3 8 10 8 3 3 2 3 6 10 11 11 9 10 8 8 7 6 7 6 5 5 3 3 6 4 1 3 4 5 7 7 6 5 5 4 5 5 7 7 6 5 5 5 4 4 5 6 6 6 6 7 6 6 6 7 8 9 9 8 7 8 8 8 8 8 8 8 8 8 8 8 8 7 7 8 7 7 6 6 5 6 5
5 5 4 3 6 5 7 9 6 3 2 3 4 4 8 9 9 5 5 6 9 10 13 14 12 11 10 8 7 6 5 4 4 4 3 2 2 4 4 1 2 1 1 3 5 6 5 5 5 5 5 5 5 6 5 4 4 4 3 3 3 3 4 4 4 5 6 6 6 5 7 8 8 8 7 7 8 8 8 9 8 8 8 8 8 8 8 8 8 7 7 8 8 6 6 5 5
6 8 5 7 5 7 6 2 5 4 4 3 9 7 3 4 5 7 9 11 10 11 14 14 14 14 11 7 6 5 5 4 3 4 9 11 11 10 9 9 6 1 1 1 2 5 3 4 6 5 5 5 5 5 4 4 3 4 4 3 3 3 4 3 3 3 4 5 4 4 5 7 7 8 8 7 8 8 7 8 8 9 8 8 8 9 9 8 8 8 8 7 8 7 7 6 5
5 5 8 5 6 3 3 2 1 6 6 3 7 7 6 6 4 10 13 12 11 11 14 14 13 11 8 6 5 4 3 3 8 10 11 12 10 11 10 9 6 7 6 5 2 2 3 3 5 5 4 5 4 5 5 4 3 3 3 2 3 3 4 3 3 3 4 4 4 3 4 5 6 7 7 6 6 7 7 7 7 8 8 8 8 8 9 7 7 8 8 7 8 7 8 8 7
4 4 6 8 7 6 8 7 2 1 4 5 5 11 11 10 11 9 8 7 9 14 15 12 12 11 10 6 4 4 4 9 7 10 12 11 10 9 9 7 8 7 7 8 6 4 3 3 4 4 5 4 4 4 5 4 3 2 3 2 2 2 2 2 2 2 2 3 3 3 4 6 6 6 6 6 6 5 6 5 7 7 8 8 8 7 7 7 7 7 8 7 7 8 9 8 8
10 8 8 8 9 7 8 6 8 8 10 9 8 11 8 8 8 9 12 13 12 14 13 11 12 11 10 4 3 4 7 9 10 12 11 10 9 9 8 9 9 11 11 10 9 8 6 5 4 3 3 3 2 3 5 4 3 3 3 2 2 2 3 4 2 3 3 3 3 3 4 5 5 6 5 5 4 4 4 5 5 5 7 8 8 8 8 8 9 9 9 10 8 6 7 8 7
11 9 9 10 9 8 7 9 8 6 9 7 9 8 7 6 7 12 16 15 10 8 11 12 11 9 6 4 5 8 11 10 9 13 13 13 14 13 12 12 13 14 14 14 12 10 9 7 4 3 2 2 3 2 2 3 3 2 1 3 3 2 3 1 2 2 2 3 4 4 4 6 5 5 5 5 6 5 4 3 3 4 5 7 8 9 8 9 8 9 8 7 10 8 5 7 7
7 7 7 9 5 11 7 10 6 9 7 5 5 8 8 9 11 17 15 8 13 8 9 11 12 5 2 8 7 9 9 6 11 12 13 13 13 13 12 11 12 14 13 13 13 12 12 11 10 5 3 3 2 2 2 3 1 1 1 1 1 2 3 3 3 2 3 1 2 4 4 4 5 6 6 6 6 6 6 5 5 5 5 6 6 5 6 7 7 7 7 6 6 10 7 9 9
7 7 6 7 6 9 9 11 11 3 2 4 4 6 7 9 16 19 13 11 11 9 9 12 12 3 5 7 9 10 10 10 11 11 11 12 12 13 11 11 11 11 11 12 12 12 12 11 11 9 6 4 3 3 4 2 1 0 1 0 3 1 1 2 3 3 3 3 3 4 5 6 6 7 7 8 8 8 8 8 8 7 7 7 6 6 6 8 9 10 10 10 7 4 4 6 11
5 4 5 7 5 5 4 3 6 2 2 6 8 11 7 12 16 17 15 8 8 8 10 12 2 11 12 12 9 10 10 11 13 12 12 13 13 13 13 12 11 11 12 12 13 12 10 10 10 10 9 7 5 4 4 5 4 4 4 5 6 5 2 3 3 2 1 2 4 3 3 4 5 6 6 7 7 7 8 8 7 7 8 8 9 8 7 9 8 8 9 9 8 8 7 8 9
3 5 6 7 7 7 7 5 5 6 6 7 7 6 5 10 12 9 7 6 6 8 9 2 10 11 13 12 13 12 12 12 12 12 13 13 14 14 13 12 11 13 13 13 12 12 9 11 12 10 9 9 10 8 6 6 5 4 5 5 5 4 3 3 2 1 1 2 2 3 5 4 5 5 6 7 7 7 7 7 7 7 7 8 8 9 9 10 10 10 12 10 12 13 10 6 7
5 5 7 6 6 6 4 6 7 4 5 2 4 5 2 1 1 6 9 3 5 5 3 7 10 10 10 12 11 12 12 12 12 12 11 10 11 11 13 13 14 13 14 12 11 11 11 11 12 11 10 10 10 9 7 6 5 4 3 2 1 1 2 2 3 4 4 4 6 4 4 5 5 5 5 6 6 6 7 7 7 7 7 7 8 9 8 7 9 10 11 11 11 9 11 7 8
3 3 3 2 2 4 4 5 3 3 1 2 2 1 7 1 10 11 11 6 9 2 11 13 12 10 9 10 11 11 10 10 11 11 11 13 12 12 13 13 12 13 12 10 10 11 12 11 11 10 9 9 10 10 9 7 7 6 4 4 3 2 3 3 2 4 5 5 5 5 5 4 5 5 5 6 6 7 6 6 7 8 7 7 7 8 8 9 9 10 8 10 11 10 7 10 13
5 0 3 3 3 2 2 2 3 7 4 5 5 5 8 5 6 11 13 9 9 10 11 11 10 11 12 12 13 11 11 10 10 11 12 11 11 11 12 11 11 11 8 9 10 10 12 11 11 10 9 9 9 9 9 9 7 7 7 5 4 4 4 4 6 7 4 1 1 4 4 4 4 5 5 5 5 6 7 7 7 7 7 6 7 8 9 8 7 7 9 11 10 10 12 12 12
1 0 4 2 1 2 2 4 5 4 5 6 6 5 1 4 7 7 6 10 3 12 10 8 10 10 12 13 12 12 11 11 11 11 12 11 11 11 9 10 9 8 8 9 9 9 9 9 10 10 10 9 9 10 10 10 9 8 6 6 7 6 6 6 6 6 6 4 2 1 2 3 4 4 4 5 5 5 6 7 6 6 7 7 6 6 7 8 10 9 10 11 12 11 10 10 9
1 2 0 1 2 3 5 4 3 4 1 5 3 7 4 6 6 3 2 1 8 8 8 9 8 11 11 10 10 10 9 9 10 10 9 10 10 9 8 7 9 9 8 8 9 9 9 9 10 11 11 9 8 9 9 10 9 8 8 7 7 7 7 7 6 7 6 6 3 3 2 1 2 4 4 4 5 5 5 5 6 6 7 8 7 6 6 8 8 9 10 11 11 12 10 10 12
2 1 1 3 3 6 3 3 1 2 4 7 9 11 7 3 2 5 3 1 12 9 8 8 8 10 11 9 8 8 8 9 8 9 9 9 7 7 7 9 8 8 7 9 10 10 8 9 8 10 9 8 9 9 9 10 9 8 8 8 7 7 7 6 6 6 6 6 6 6 3 3 3 4 4 4 4 5 5 5 5 6 6 6 7 6 7 7 8 9 8 8 11 13 11 11 11
1 0 0 3 7 1 1 1 4 1 5 3 2 12 10 5 3 1 6 6 8 10 11 10 10 8 8 7 6 6 8 7 7 7 7 7 8 9 8 10 10 10 11 12 11 10 9 9 9 9 10 9 8 9 10 9 8 8 7 7 8 7 7 6 7 6 6 6 6 7 7 4 3 3 3 4 4 4 5 5 5 5 5 6 7 7 7 7 7 7 8 8 8 10 11 11 11
2 2 1 1 3 1 2 3 1 4 5 2 6 2 2 6 3 10 7 7 9 8 8 10 12 10 7 7 6 5 5 7 7 6 6 6 7 8 9 9 7 8 9 9 9 7 6 7 9 10 11 11 10 10 11 10 10 9 8 8 6 7 7 8 7 7 6 7 7 7 7 6 6 5 4 4 4 5 5 5 5 6 6 6 7 6 6 7 7 7 8 9 8 8 10 11 11
4 4 4 1 3 1 5 4 3 3 1 2 2 3 1 2 4 3 9 6 9 11 10 9 9 8 8 6 6 5 6 6 6 6 6 7 6 7 6 6 8 8 10 11 10 9 8 8 9 9 8 7 7 9 11 11 11 11 10 9 8 7 7 6 6 6 6 6 6 7 6 6 6 6 6 4 5 5 4 6 6 6 6 6 6 7 7 6 7 8 8 9 9 8 8 11 13
9 3 7 5 3 1 4 2 5 5 5 1 0 3 5 2 3 4 9 9 10 10 11 8 7 7 7 6 6 7 5 5 5 5 6 5 6 6 6 6 6 7 8 8 7 8 8 8 8 9 8 9 9 10 10 11 9 9 9 9 9 8 7 7 7 6 6 5 5 5 5 6 6 6 6 6 6 4 5 4 5 5 5 6 6 6 7 7 7 7 7 8 8 7 8 9 10
3 1 3 1 4 2 7 4 7 5 4 5 2 4 2 0 6 6 7 9 10 9 10 8 7 6 5 6 5 4 4 4 4 4 4 4 4 4 4 4 4 5 6 6 6 6 5 5 4 4 5 6 8 9 9 9 9 8 8 9 9 9 8 7 7 7 7 6 6 5 6 5 5 5 6 6 6 7 5 4 4 5 5 5 5 6 6 6 6 7 7 7 8 5 8 9 10
1 3 1 3 2 1 4 4 4 5 5 12 4 5 8 3 4 10 8 9 7 7 7 7 7 5 5 5 4 4 3 4 3 4 3 3 3 3 3 3 4 4 4 4 4 4 4 4 4 4 4 5 7 7 7 8 7 7 7 7 7 8 8 8 8 9 9 9 9 9 9 9 8 7 6 5 6 5 6 4 4 4 5 5 6 6 6 6 6 7 8 7 8 7 8 9 7
4 0 4 1 1 2 1 5 2 5 10 9 8 10 6 2 4 3 4 9 5 5 5 6 6 4 5 4 3 3 3 3 3 3 2 2 1 2 1 2 3 3 2 2 2 3 3 2 3 3 5 7 7 7 6 5 5 6 6 6 6 5 5 5 5 6 6 6 6 6 6 7 7 8 7 7 7 8 7 6 5 5 5 5 6 6 6 6 6 7 7 7 8 7 8 7 7
2 1 1 1 2 4 1 1 5 7 10 7 5 9 10 8 6 5 6 8 7 6 5 5 5 5 4 4 4 3 3 3 3 3 2 1 1 1 1 1 2 2 2 2 2 2 2 3 5 6 8 8 7 5 4 4 3 2 2 2 3 4 4 3 3 4 4 4 6 6 6 6 6 7 7 7 7 7 7 7 6 6 6 6 6 6 6 6 6 7 7 7 6 6 8 9 7
3 1 3 1 2 4 5 3 1 2 7 6 6 8 7 4 2 1 6 8 8 8 4 4 5 5 3 3 3 3 3 3 3 3 3 2 1 2 1 2 2 2 2 2 1 1 3 5 6 7 6 6 6 5 4 3 3 2 2 1 1 0 1 2 3 4 7 7 7 8 8 9 9 7 6 7 6 6 7 7 7 7 6 6 6 6 6 7 7 7 7 7 7 7 8 9 8
1 1 1 0 0 1 1 2 3 4 4 6 7 9 6 3 7 5 8 5 5 6 6 4 4 4 4 3 3 3 3 3 3 3 3 2 2 1 0 0 0 0 1 1 1 3 3 4 6 6 7 6 6 5 4 4 3 3 1 1 1 1 2 1 3 3 5 5 6 7 7 7 7 9 9 9 9 8 7 7 7 7 7 6 6 7 6 7 7 7 7 7 7 7 8 8 7
5 5 6 7 4 4 5 9 3 2 6 5 6 11 4 2 5 7 6 4 6 5 5 4 4 4 3 3 2 2 1 2 2 2 2 1 2 1 0 0 0 0 2 4 5 5 7 7 7 6 6 5 6 6 6 5 4 4 4 5 5 4 4 5 6 4 6 5 6 6 6 7 7 8 8 8 9 8 8 9 9 9 8 7 7 7 6 6 7 7 7 6 7 7 8 9 7
Wind_Direction
287 265 242 248 258 270 313 247 313 197 196 231 245 259 73 169 24 327 259 74 87 88 42 334 42 262 325 353 293 312 309 316 331 356 232 216 162 144 126 141 243 125 133 138 148 157 160 161 163 164 164 166 168 167 165 164 164 162 164 165 165 166 167 165 166 172 173 177 177 175 155 143 137 127 129 121 111 104 106 108 109 104 99 97 93 92 90 90 84 78 75 73 72 68 66 62 60
280 283 282 278 270 330 276 21 268 277 225 261 243 55 337 111 227 97 18 69 74 60 28 325 308 323 265 286 293 329 277 213 240 81 98 101 123 52 119 166 181 149 135 139 147 160 161 163 162 165 167 167 167 171 167 167 166 166 168 169 170 171 170 171 172 176 182 184 183 161 153 145 143 141 124 116 109 103 88 78 77 94 91 91 105 114 113 106 95 90 87 84 82 80 76 75 66
315 313 296 237 261 217 290 298 283 314 323 324 73 34 50 38 26 38 45 64 55 17 10 257 190 204 245 202 278 190 287 231 135 75 95 147 125 205 155 175 195 157 137 136 151 161 162 164 162 165 170 169 167 171 168 169 169 170 171 171 174 174 176 175 179 184 191 193 179 163 154 155 154 142 130 120 122 116 108 96 81 77 78 76 84 82 108 114 113 103 100 99 94 90 88 84 82
287 281 280 316 296 150 279 175 228 267 314 288 72 90 72 122 28 43 60 71 81 216 21 319 333 103 314 270 303 340 258 11 45 32 125 170 320 153 154 176 207 156 138 139 155 163 164 163 164 167 171 170 171 171 169 171 171 172 174 174 177 175 181 180 184 191 198 193 176 168 161 162 161 145 131 128 141 130 114 120 115 120 118 101 101 117 111 128 113 109 109 104 100 95 90 88 88
286 270 248 312 311 272 301 253 281 283 264 315 340 359 48 58 25 39 19 64 155 119 30 339 282 197 268 281 331 267 354 93 46 63 106 34 169 139 148 159 214 152 155 144 156 163 163 161 166 169 169 172 173 172 170 172 173 176 177 177 182 181 183 186 189 194 199 191 179 169 165 167 160 152 141 142 147 144 137 138 136 130 133 137 142 134 134 136 119 114 110 107 103 97 92 88 83
250 269 212 143 252 85 339 309 253 227 240 14 356 1 11 34 34 61 315 266 122 117 79 303 276 341 283 225 187 222 37 21 224 57 62 159 108 132 145 157 206 163 157 154 161 162 159 164 167 170 173 175 176 172 171 174 174 176 176 181 187 185 188 190 194 196 196 196 181 172 168 175 161 158 149 140 148 154 158 165 167 147 209 251 173 167 149 143 125 118 113 106 102 99 94 88 81
306 314 197 224 285 162 263 277 286 307 29 337 42 0 352 359 35 4 325 331 54 94 94 220 31 308 255 265 169 231 71 144 308 82 64 155 148 134 138 184 195 172 159 172 154 167 153 164 169 171 174 178 178 175 173 173 178 175 178 186 188 188 190 194 195 197 195 193 180 173 175 172 169 162 152 144 143 171 182 190 198 203 219 220 215 188 165 145 129 123 116 112 104 100 97 92 86
246 11 35 251 282 104 235 235 258 251 163 78 131 312 357 353 14 18 328 325 164 213 160 251 140 114 266 113 276 330 72 43 122 126 115 129 138 136 162 179 171 194 159 189 162 160 155 164 168 172 175 178 180 176 175 177 179 179 182 187 187 189 194 195 195 198 191 187 181 178 179 171 167 172 155 155 153 157 185 208 210 215 221 200 216 178 160 141 129 122 117 111 109 108 103 98 94
246 164 251 350 252 208 250 252 257 232 308 84 52 111 128 162 357 1 292 313 281 237 159 170 134 257 44 50 243 179 64 105 94 110 117 124 145 143 177 175 166 181 164 194 128 121 157 165 169 170 176 179 177 177 180 178 183 181 185 189 188 191 193 194 196 198 189 183 180 179 180 177 170 159 159 161 165 181 191 205 228 236 168 215 203 188 163 143 136 130 125 119 118 114 108 104 95
278 143 290 279 345 297 262 247 195 14 289 103 139 16 34 21 350 353 308 289 10 344 58 80 158 198 316 308 313 125 205 141 121 99 116 143 132 158 162 190 172 162 160 179 114 136 149 168 167 172 174 178 181 179 181 181 183 185 189 190 190 193 193 192 196 191 190 181 182 183 179 177 175 175 172 166 163 159 172 193 196 188 198 198 200 186 174 162 146 137 128 124 120 118 114 109 106
272 165 230 331 246 248 263 336 3 345 328 345 71 75 64 24 17 318 273 270 267 265 146 124 231 236 246 258 239 301 89 137 159 140 154 131 128 151 158 187 179 164 163 168 141 130 140 166 172 171 172 180 186 183 182 183 185 188 189 191 191 191 193 189 192 189 184 187 186 183 179 178 184 162 160 166 165 167 172 192 194 190 195 194 198 187 181 166 152 142 135 128 122 118 115 109 104
281 232 146 272 284 300 315 4 327 292 316 294 81 78 359 86 311 281 314 314 346 329 260 155 66 14 303 290 284 212 140 142 77 115 124 122 164 169 150 160 135 190 158 158 155 130 149 159 170 176 176 179 188 188 186 185 186 186 188 190 192 189 190 190 188 186 187 185 188 184 182 181 172 163 170 172 164 162 174 175 194 200 196 200 200 194 176 165 157 143 133 126 123 121 116 110 105
242 313 312 305 277 309 322 313 281 329 284 53 133 54 146 117 270 322 328 335 301 276 7 130 55 321 279 274 119 116 134 67 86 99 137 161 147 161 187 142 166 192 159 162 159 145 150 158 169 175 181 180 183 191 190 187 188 186 188 190 190 188 189 187 186 184 188 187 189 184 171 181 177 170 170 171 158 162 161 163 177 199 200 199 202 197 177 176 159 145 132 131 131 125 118 113 105
318 336 10 285 329 298 292 275 267 284 317 80 45 167 134 235 104 0 346 302 299 12 188 356 352 48 274 270 288 137 145 134 128 126 164 133 121 141 195 131 161 189 170 165 170 169 155 159 169 173 178 181 181 191 193 189 188 186 188 189 188 187 185 186 189 187 189 185 181 178 175 170 170 166 175 150 154 152 156 159 176 205 202 197 201 191 178 178 165 152 138 136 132 126 117 108 99
316 330 296 275 288 291 248 215 298 15 279 80 190 159 217 168 220 241 243 288 288 140 173 191 233 86 243 318 228 189 185 164 150 156 117 104 126 140 184 129 143 190 168 175 176 171 188 170 170 174 180 182 185 183 190 190 187 187 186 189 189 187 185 185 189 187 188 183 177 173 174 161 170 170 159 151 143 141 137 136 167 204 203 198 198 190 182 176 172 157 145 141 134 124 114 102 91
280 350 238 284 273 303 293 301 244 141 245 96 186 108 261 316 145 279 275 101 281 320 62 281 152 225 275 282 282 165 146 147 147 138 139 125 169 132 147 149 156 198 179 178 195 193 190 198 180 173 176 182 186 179 187 185 187 184 187 188 189 190 189 187 184 183 183 179 176 165 153 155 161 160 153 147 145 140 137 132 146 201 206 201 199 193 183 177 180 163 153 144 137 125 111 96 89
298 193 294 219 259 232 254 233 323 255 340 2 172 121 345 296 127 264 140 165 291 274 268 238 239 199 241 245 239 148 151 140 148 155 145 147 154 173 165 186 196 180 189 197 195 189 196 195 212 174 179 182 184 185 184 186 185 183 185 187 188 191 190 188 185 181 180 179 168 156 145 144 148 137 145 140 140 142 144 143 149 192 211 205 198 194 189 186 187 170 159 148 140 121 100 88 80
155 212 197 255 238 264 306 331 338 348 330 327 333 340 341 322 27 184 46 256 234 256 250 250 244 243 234 231 222 153 149 148 169 161 175 171 180 180 183 197 188 199 184 193 203 191 184 195 211 199 179 182 184 186 185 184 177 183 184 185 187 190 190 187 184 175 174 162 157 153 157 155 151 149 158 142 150 145 147 148 156 179 217 202 189 191 190 191 188 171 163 152 139 115 99 72 47
194 258 235 248 264 277 329 315 302 336 314 332 309 304 326 307 352 314 305 289 303 299 280 282 280 267 248 234 195 148 156 171 175 185 187 188 189 195 193 187 194 193 190 189 198 196 190 187 200 214 186 180 184 187 185 180 169 179 187 186 188 187 184 182 180 178 171 160 165 168 170 167 163 156 169 154 159 153 153 156 160 178 209 181 162 173 190 191 187 172 166 151 133 127 126 116 103
217 214 249 255 262 273 278 300 312 312 301 292 324 341 334 305 305 280 249 271 279 267 284 289 268 276 272 290 199 171 171 187 181 192 208 209 200 203 201 193 193 200 195 189 191 192 183 189 201 210 199 179 180 186 186 179 169 176 184 184 184 189 187 182 185 182 176 164 169 176 181 177 176 168 172 165 151 158 154 160 164 173 196 157 149 150 178 186 183 171 161 141 127 147 185 139 134
183 193 224 245 271 313 305 310 297 300 340 357 339 325 301 291 283 37 296 299 250 259 254 260 268 275 313 320 322 209 188 197 194 200 213 223 223 214 211 205 193 196 194 180 175 185 187 188 191 204 199 186 179 184 185 186 168 172 182 184 184 186 188 183 186 185 183 178 170 178 188 188 176 174 145 156 147 149 138 156 160 163 150 150 143 141 145 159 153 122 121 120 142 186 235 170 148
298 242 248 266 297 287 290 297 320 9 35 310 300 296 282 318 295 215 219 246 260 258 268 271 288 297 293 302 302 302 273 193 207 204 213 219 223 227 226 236 235 181 176 171 186 181 186 189 191 194 193 190 184 186 190 185 177 168 181 186 185 186 185 182 185 190 189 189 174 180 183 190 179 167 143 155 159 152 147 159 164 162 156 155 155 149 155 152 152 139 139 156 185 200 222 186 168
244 230 248 241 246 259 273 277 335 66 323 303 292 272 304 297 284 275 269 252 264 255 264 269 273 275 279 283 283 282 270 243 207 213 214 221 228 230 226 217 208 221 175 189 175 182 182 187 191 187 192 192 190 188 186 181 190 180 175 183 185 188 183 185 188 193 196 191 184 177 179 187 182 171 155 159 168 162 158 163 167 172 169 160 170 154 167 164 168 157 158 179 210 200 212 167 137
239 256 297 295 301 282 286 290 305 197 244 266 267 305 285 289 285 269 261 260 263 271 266 268 269 269 271 271 269 263 263 252 233 221 219 222 220 220 215 216 219 201 176 188 184 181 176 189 188 185 190 191 191 188 188 189 191 188 182 179 189 191 184 186 186 189 192 195 189 180 176 179 176 177 168 165 172 164 169 163 165 176 173 164 170 173 168 165 177 165 167 181 213 179 142 115 112
291 269 243 255 254 278 294 296 284 280 272 276 277 271 263 267 270 295 268 268 264 268 270 269 270 274 267 265 269 265 264 261 250 235 228 219 214 214 200 206 212 203 201 195 189 182 184 183 185 189 190 193 191 187 193 190 188 191 191 190 193 192 191 186 183 180 187 193 190 182 172 179 178 175 172 170 162 173 173 166 169 178 173 168 165 191 172 165 179 169 171 185 179 138 136 157 154
221 272 323 317 308 309 306 303 292 284 281 235 239 256 268 265 286 267 265 261 256 252 260 265 263 264 266 261 254 255 255 254 251 245 234 218 207 202 211 202 202 207 213 203 179 195 185 178 184 190 191 192 192 190 193 191 190 192 196 198 198 190 195 187 182 182 186 187 183 181 176 178 180 178 171 167 168 180 179 171 169 176 176 169 166 186 178 160 172 168 171 167 155 155 156 187 150
349 330 315 309 300 300 283 270 272 259 251 242 231 258 264 268 299 279 257 254 251 250 247 253 256 248 261 266 260 249 251 254 245 239 233 206 200 191 210 210 204 214 209 207 190 188 186 172 185 191 192 189 189 193 194 197 192 193 193 196 198 195 190 186 187 184 187 188 178 177 174 179 173 172 168 169 172 179 182 173 176 173 173 173 167 177 166 162 167 171 169 165 167 166 173 172 154
359 333 315 290 285 273 269 262 259 254 252 226 228 251 271 276 247 256 270 272 266 271 275 259 264 281 276 271 272 269 259 252 247 226 224 211 212 196 203 205 218 219 208 215 205 181 177 183 184 189 191 189 190 195 193 197 199 197 192 193 198 196 185 193 194 193 186 184 173 172 176 179 170 176 170 173 175 178 181 177 176 172 176 168 167 166 162 165 170 172 165 165 169 164 163 165 160
355 355 302 284 282 278 266 260 258 236 241 164 175 262 284 273 237 248 251 262 273 268 261 267 251 247 258 260 261 261 257 262 261 228 215 215 211 192 206 210 208 208 217 206 206 176 182 190 185 191 188 186 192 194 194 198 200 199 195 194 191 190 192 189 196 200 194 184 180 168 176 180 176 177 178 177 176 177 176 174 176 175 170 164 164 163 160 165 164 161 168 161 164 156 146 170 158
271 238 252 287 286 271 271 256 241 233 230 130 109 268 200 260 260 277 280 258 353 351 310 278 263 260 269 275 274 274 277 289 285 262 235 227 212 215 216 214 200 197 191 198 173 198 193 184 183 180 189 185 191 195 193 196 201 204 200 194 188 190 197 190 192 192 194 190 176 180 178 180 183 179 173 177 175 175 177 176 175 175 169 163 161 159 163 169 162 157 166 152 167 154 159 166 156
266 266 244 270 307 270 282 272 109 134 352 128 138 226 252 271 278 278 282 109 359 311 286 278 275 271 267 266 267 269 268 253 257 257 252 249 235 223 229 241 174 137 142 149 179 195 188 171 165 173 175 186 181 194 190 193 202 209 205 197 191 189 194 191 186 186 188 191 176 180 181 181 183 186 177 174 182 177 178 178 178 178 169 161 161 168 163 171 159 163 160 157 162 154 156 167 165
252 287 230 224 210 260 264 276 154 170 264 194 122 252 246 249 262 281 317 329 328 309 292 284 281 277 271 274 276 272 271 266 272 274 254 273 340 7 33 105 114 61 88 177 173 169 176 164 154 160 152 176 170 183 188 181 183 195 198 208 206 200 202 198 187 190 189 191 188 175 179 181 184 190 185 178 183 186 183 182 182 172 170 162 165 165 163 173 169 164 174 158 160 173 156 172 172
244 227 260 258 246 268 294 282 162 164 128 257 163 232 242 265 288 302 304 303 293 287 278 278 275 273 276 278 275 277 290 314 343 1 24 27 25 24 27 23 14 35 126 68 133 150 164 155 150 148 153 174 163 167 177 187 168 173 175 175 189 183 200 207 197 179 187 191 194 175 174 179 186 193 192 186 187 191 188 185 182 177 170 166 166 171 175 177 168 168 174 174 166 165 164 164 174
255 219 250 228 250 289 260 301 16 116 144 200 233 247 226 244 281 284 277 271 271 264 266 267 272 278 280 276 280 286 300 32 37 31 30 33 30 25 23 21 27 31 34 28 47 122 164 154 150 148 146 161 167 160 168 174 170 138 149 156 176 184 198 193 192 176 196 192 179 171 162 178 190 196 195 192 193 197 194 188 182 177 171 169 170 173 184 175 173 165 168 177 169 161 164 163 172
258 283 300 292 296 291 287 302 259 199 178 232 215 225 244 245 241 252 274 271 273 270 267 275 283 290 291 293 308 307 50 61 41 48 45 37 31 23 22 15 16 23 30 21 23 36 59 75 114 139 137 146 158 140 144 151 155 141 132 138 157 180 151 182 169 170 165 170 177 160 151 174 189 197 201 198 196 197 201 195 185 183 172 172 171 176 178 178 171 169 165 178 177 176 167 168 163
266 276 279 291 293 290 285 286 290 291 287 281 269 275 287 295 303 293 284 272 262 269 283 285 282 284 290 313 301 50 64 60 60 56 47 39 29 26 24 18 25 27 25 23 19 20 27 31 61 79 92 117 122 116 117 128 139 164 165 154 151 170 173 170 184 182 159 169 166 165 151 165 176 192 203 200 200 199 208 211 199 186 180 172 175 176 182 181 179 173 180 174 175 175 164 158 146
255 259 256 259 271 279 291 280 288 292 296 276 286 287 286 294 282 277 267 272 272 273 279 279 275 273 288 310 52 68 64 70 73 62 50 39 31 26 26 27 26 29 24 19 17 17 19 20 52 86 98 78 92 91 87 117 140 160 130 161 184 178 192 185 176 197 186 171 162 172 165 162 168 182 195 189 198 199 207 215 206 206 191 186 186 191 183 187 185 182 174 174 170 168 173 162 155
296 293 291 284 275 281 275 287 302 293 279 305 301 295 299 295 292 274 273 285 280 271 269 271 274 269 31 70 64 66 78 67 64 61 53 44 37 30 29 31 29 30 20 19 19 21 19 12 15 17 81 75 64 104 106 102 110 149 139 188 154 179 176 188 220 202 208 204 149 146 148 152 153 171 185 189 193 193 202 202 199 195 195 205 205 188 183 184 179 179 164 175 197 174 180 170 163
274 276 286 290 280 282 279 273 269 274 41 273 286 297 294 289 276 277 283 269 262 256 240 255 262 299 66 67 68 67 69 60 57 62 58 47 40 36 33 32 34 31 27 26 18 22 21 16 10 4 17 70 52 49 70 79 68 57 107 132 156 216 182 165 169 170 155 164 153 163 161 161 165 178 185 187 194 198 198 195 197 183 189 189 189 200 190 190 189 185 180 178 181 201 173 187 171
252 271 283 263 271 271 297 265 330 344 343 307 304 292 295 278 269 274 275 266 255 254 247 247 317 75 71 60 63 74 63 61 55 46 44 42 40 34 31 30 28 30 27 24 21 20 21 17 11 5 10 19 34 52 48 37 54 49 50 50 35 67 60 26 60 63 99 145 204 189 171 165 176 184 184 191 198 198 200 203 197 191 192 183 187 194 197 202 193 190 189 190 170 172 191 203 194
241 229 241 266 272 261 256 297 338 330 311 288 298 287 269 255 272 290 281 251 245 246 248 341 75 87 91 78 67 61 64 58 57 48 41 39 38 35 32 29 30 33 29 26 19 17 16 15 12 12 16 25 21 18 41 28 29 31 35 31 39 13 13 35 45 334 224 186 195 185 206 182 182 184 188 195 194 201 203 203 202 200 192 194 191 197 199 203 200 197 195 187 186 185 193 188 209
285 263 252 261 274 296 325 339 349 340 311 31 41 330 240 312 293 300 299 275 242 251 241 82 74 80 80 89 93 85 69 62 59 53 47 41 41 34 31 29 31 31 31 24 20 16 17 18 17 16 20 23 16 11 18 29 22 50 42 53 20 6 299 296 256 234 231 216 213 212 197 191 189 190 189 192 200 203 207 207 208 205 200 196 197 203 205 201 205 204 203 196 198 205 191 172 192
292 260 19 3 12 349 331 326 26 302 234 262 93 102 278 259 271 262 268 240 243 307 62 78 78 74 65 60 54 52 61 64 60 56 45 42 34 35 32 29 27 33 29 23 25 20 18 22 19 21 26 20 14 11 9 27 19 16 24 11 353 336 310 270 250 245 219 225 204 201 206 204 202 199 207 193 196 202 208 212 214 216 211 201 198 202 205 206 207 209 203 205 204 200 177 189 194
250 300 323 25 27 7 341 326 250 255 269 266 266 230 258 286 274 259 247 239 234 80 75 62 72 73 69 62 59 55 48 46 54 54 49 42 37 35 34 28 28 30 25 29 31 25 22 22 19 21 26 24 17 13 14 20 26 18 12 4 355 342 329 310 327 324 318 311 184 205 189 198 205 205 208 213 205 202 206 213 216 221 225 216 201 207 211 210 208 209 207 211 210 205 201 199 195
192 311 45 7 44 300 292 271 262 259 315 285 201 197 281 242 243 240 229 224 91 92 87 90 82 79 75 69 61 55 46 46 44 48 46 41 37 31 29 31 25 23 26 33 34 29 24 24 27 25 28 25 16 18 21 17 21 17 12 12 7 346 348 335 329 328 325 324 329 330 168 198 204 217 212 213 215 210 209 214 215 219 223 228 215 215 216 213 213 207 207 209 212 214 212 210 194
173 227 135 290 248 256 236 244 277 301 276 265 180 182 208 283 259 186 255 355 102 100 84 76 68 60 55 59 66 70 65 45 39 42 48 46 39 33 25 25 26 24 18 27 33 31 28 23 28 28 28 23 16 23 27 25 23 19 18 12 8 350 347 342 346 338 333 333 314 284 246 229 216 218 231 223 220 223 218 216 219 221 225 227 224 220 220 221 223 222 215 213 214 218 217 213 213
156 172 269 281 243 240 253 224 283 332 245 248 213 196 176 307 289 207 181 252 123 124 115 109 87 77 70 52 46 54 64 65 56 40 32 39 38 33 22 28 23 21 18 25 29 27 20 24 24 34 26 21 19 23 28 33 26 23 19 10 5 358 351 349 351 343 340 343 334 323 299 244 227 221 221 228 226 229 230 223 220 225 227 230 229 229 227 223 226 227 225 219 217 217 217 220 224
136 35 47 338 296 167 148 262 131 164 274 282 271 177 191 175 267 191 46 51 110 131 133 117 90 71 75 76 60 53 53 59 63 58 45 29 29 27 26 27 20 13 15 22 22 16 15 13 17 28 26 23 23 28 34 35 35 28 24 13 6 358 356 356 353 345 343 340 336 332 330 337 298 257 217 218 231 234 230 234 231 230 230 231 233 230 234 231 229 229 230 226 226 222 222 222 226
115 173 142 104 269 14 268 102 315 200 230 261 20 30 253 248 256 282 65 30 74 98 112 115 112 109 100 89 82 62 63 58 52 51 47 36 31 23 21 16 14 20 21 24 24 15 6 10 13 23 22 14 16 20 32 32 32 29 20 14 9 1 0 357 352 354 350 348 344 343 344 339 328 330 291 235 244 226 223 231 235 230 234 233 236 234 236 234 233 231 230 232 229 223 222 223 226
160 172 170 169 315 285 263 252 236 271 232 271 59 8 237 246 273 22 101 78 69 69 71 84 98 105 105 99 88 81 70 63 54 42 41 40 28 26 22 15 13 10 15 17 14 11 7 10 12 20 17 12 12 28 32 30 25 18 13 12 9 4 1 353 345 350 342 344 342 339 336 332 333 319 320 298 252 237 227 223 223 229 229 233 233 237 238 237 235 234 234 235 233 228 222 225 231
197 206 157 179 188 198 276 267 259 246 237 311 289 39 224 130 229 137 112 103 93 93 95 91 93 93 91 89 88 75 61 60 52 51 43 34 29 22 20 12 15 12 13 13 12 8 4 6 6 9 9 6 16 25 29 27 22 19 16 10 5 2 359 355 348 351 341 339 330 331 327 330 332 324 326 319 325 288 243 237 231 231 238 238 236 237 238 239 239 238 236 239 239 228 227 225 230
203 242 44 71 224 148 251 261 279 288 316 304 243 194 259 20 133 111 112 106 99 103 109 109 104 102 98 92 91 88 84 81 68 65 59 43 35 30 12 14 8 15 13 9 6 2 3 358 356 3 7 5 15 24 26 25 20 16 16 13 8 2 357 355 350 349 342 341 335 335 329 328 325 326 325 333 326 328 299 263 256 249 249 249 246 241 238 235 235 237 241 239 243 233 234 232 232
312 59 218 207 339 116 268 296 270 304 296 257 257 275 263 287 216 108 120 101 91 104 104 109 111 115 108 96 94 101 100 94 87 77 62 50 40 29 26 7 16 14 15 10 357 345 349 349 351 359 11 16 20 21 26 23 15 15 10 12 5 4 2 2 354 348 345 347 350 348 346 341 340 338 331 329 322 320 305 269 266 272 268 259 256 251 246 241 237 234 233 235 241 238 237 238 233
62 175 232 309 224 95 181 260 242 245 246 262 256 268 279 272 276 127 103 104 125 107 121 120 119 111 95 104 110 108 113 110 99 100 84 90 88 59 30 15 13 12 357 338 335 327 329 337 344 14 19 29 26 27 21 28 22 11 3 3 2 2 0 353 349 355 348 355 353 348 339 338 340 335 337 332 331 329 322 312 300 288 281 277 265 260 256 251 247 245 239 237 234 230 239 246 238
152 212 338 86 268 312 251 135 250 239 243 265 225 258 259 240 226 142 171 139 144 139 131 123 113 106 114 122 122 131 123 120 133 136 136 167 142 104 46 21 349 324 330 315 309 331 356 9 12 19 24 22 21 22 13 8 21 27 15 343 340 354 347 347 344 6 3 11 9 358 352 344 335 337 334 332 330 326 321 309 300 290 285 278 274 269 263 261 252 252 248 247 246 238 239 242 239
130 144 10 59 112 227 235 216 207 307 263 263 243 230 250 227 197 297 129 135 140 135 119 98 96 98 114 126 127 146 144 148 168 158 156 160 126 92 40 1 335 329 321 304 306 326 29 28 23 24 24 24 20 17 6 4 351 350 346 314 295 273 319 340 357 18 14 15 8 3 358 358 351 339 339 336 333 329 323 318 304 292 284 277 273 268 263 258 257 251 249 249 248 242 246 245 243
36 55 266 20 104 250 120 308 174 199 257 238 269 251 253 303 357 61 113 112 125 126 123 133 138 145 134 137 141 150 154 155 165 154 143 139 132 122 142 207 219 246 274 303 334 17 29 40 32 25 25 16 24 13 11 5 357 344 355 352 328 310 351 344 6 28 24 14 11 5 1 354 344 353 349 346 342 337 331 328 322 312 300 290 278 273 264 258 254 255 254 249 251 245 247 250 246
164 189 202 200 199 287 268 261 166 185 215 234 239 259 255 48 20 71 82 80 90 92 114 130 142 126 130 117 127 137 135 115 124 128 123 128 127 129 189 219 201 231 358 11 7 12 17 22 25 15 17 9 13 2 5 359 359 354 1 359 356 356 5 3 12 9 15 8 6 3 355 356 358 344 351 345 343 338 336 331 330 323 320 312 302 285 272 259 257 258 257 251 253 249 251 252 245